World > North America > United States > Ohio > Laura

Hourly Laura, OH Regional Weather

Feedback E-mail the Weather

Quick WX

Laura, OH Weather Maps

°F °C°F °C
Laura Weather Map
UTC Time: 8/17/2022, 19:05
Your Time:

Laura, OH Regional Weather

Expires:202208172000;;210319
ASUS41 KCLE 171902
RWRCLE
OHIO REGIONAL WEATHER ROUNDUP
NATIONAL WEATHER SERVICE CLEVELAND, OH
300 PM EDT WED AUG 17 2022

NOTE: "FAIR" INDICATES FEW OR NO CLOUDS BELOW 12,000 FEET WITH NO
SIGNIFICANT WEATHER AND/OR OBSTRUCTIONS TO VISIBILITY.


OHZ042-051>053-060>062-070>072-077>081-172000-
  SOUTHWEST OHIO
  
CITY           SKY/WX    TMP DP  RH WIND       PRES   REMARKS
CINC-COVINGTON PTSUNNY   80  60  50 NE9       30.05S                  
CINC-LUNKEN    PTSUNNY   82  61  48 E7        30.04F                  
HAMILTON       MOSUNNY   80  59  48 MISG      30.06F                  
DAYTON         MOSUNNY   81  57  43 NE8       30.07F                  
WRIGHT-PAT AFB PTSUNNY   80  58  46 N8        30.02F                  
DAYTON GENERAL MOSUNNY   80  60  50 E10       30.05F                  
WILMINGTON     SUNNY     79  58  48 E6        30.05F                  
$$


SKY/WX - Weather  TMP - Temperature  DP - Dew Point  RH - Humidity
WIND - Wind Direction/Speed PRES - Barometric Pressure VSB - Visibility
WCI - Wind Chill Index E13G22 Wind - East Wind 13 mph/Gusts of 22 mph

Trending Headlines

Laura Radar Loop



Laura Quick Facts


National Two Day Weather Forecast


E-mail the Laura Weather Forecast

Voice your opinion or tell us about page issues...